Weather in Novomoskovsk

Russia / Tula Oblast     54°00′39″N   38°17′27″E
temp.,
°C
wind,
m/s
gust,
m/s
humid.,
%
clouds,
%
prec.,
mm/h
press.,
hPa
HPBL,
m
6 may, thu
thu600:00+9ssw5148280 0.0 1010298
03:00+8ssw5138387 0.0 1010273
06:00+10s61477100 0.0 1009351
09:00+11s61477100 0.0 1009655
12:00+14ssw91671100 0.8 10081778
15:00+14ssw10166398 1.2 10071531
18:00+11sw81574100 1.6 10081185
21:00+9sw61193100 2.9 1009670
7 may, fri
fri700:00+8wsw3892100 0.5 1010345
03:00+7wsw4893100 0.6 1011323
06:00+6w3790100 0.0 1012295
09:00+9w586137 0.0 1013951
12:00+12w56440 0.0 10141615
15:00+14wsw463920 0.0 10142135
18:00+13ssw4652100 0.0 1014494
21:00+9sse496582 0.0 1014155
8 may, sat
sat800:00+8sse51465100 0.0 1014311
03:00+8sse71662100 0.0 1012493
06:00+8sse71676100 0.1 1010734
09:00+8sse91892100 3.6 1007812
12:00+9sse81595100 2.0 1006752
15:00+10s71395100 5.9 1004652
18:00+9ssw51194100 1.5 1005545
21:00+7wsw71284100 1.8 1007687
9 may, sun
sun900:00+4w71286100 0.0 1009899
03:00+5w71289100 0.0 1011944
06:00+5w51084100 0.0 1014624
09:00+6wnw6880100 0.0 1016776
12:00+7nw6768100 0.1 10181318
15:00+9wnw476098 0.1 10201396
18:00+9nnw57659 0.0 10221214
21:00+5nnw22805 0.0 102420
10 may, mon
mon1000:00+4nw33810 0.0 102638
03:00+3nnw35800 0.0 102869
06:00+4n36801 0.0 1030139
09:00+10nne57615 0.0 1030741
12:00+13ne56495 0.0 10301407
15:00+14ne56475 0.0 10301463
18:00+13ne46583 0.0 1029830
21:00+9ne34720 0.0 103056